Retour au catalogue

STARLINK-11685

ActifCommunicationsVLEO
NORAD 63552·PAYLOAD·🇺🇸 United States

Lancé Apr 13, 2025 depuis Cape Canaveral Space Force Station

Loading…

Prochains Passages (prochaines 24 heures)

TLE

FraisSource: CelesTrak SupGP

Époque: Sep 14, 2026, 22:28 UTC

1 63552C 25075E   26257.93659722 -.00001777  00000+0 -13805-4 0  2576
2 63552  43.0005  92.7983 0001677 266.4915 159.1678 15.70832261    10

Suivez STARLINK-11685 en temps réel avec AllMySat

Download on the App Store